GPS BIIR-18M

Last updated on Sun Apr 12 2026 00:02:38 GMT+0000 (Coordinated Universal Time)

1 32384U 07062A 26100.97921484 .00000008 00000+0 00000+0 0 9994 2 32384 55.0868 276.8525 0034091 161.6208 12.2809 2.00555969134168
UTC large
Height (km)
Speed (km/s)
/
Latitude / Longitude
Inclination (degrees)
Orbital Period (minutes)
Azimuth
Elevation
Range (km)
Doppler Factor

Next 0 passes for location: London (51.5072 / 0.1276)

Sorry there are no passes over London.